This demonstration page uses our WeatherBlox Daily Observations layout. Learn more.

Left ArrowRight Arrow

39.29038, -76.61219

Hourly Observations for November 26, 2021

Temp ( °F °C ) Dew Point ( °F °C ) Humidity (%) Winds ( mph kmh ) Pressure ( in mb ) Visibility ( mi km ) Precip ( " mm )
12:54 am 00:54 Cloudy with Light Rain 45 7.2 42 5.6 90 90 N N/A 29.78 1008 8 13 0.02 0.51
1:54 am 01:54 Cloudy with Light Rain 44 6.7 42 5.6 93 93 N N/A 29.77 1008 7 11 0.06 1.52
2:54 am 02:54 Cloudy 45 7.2 42 5.6 90 90 SW 5 7 29.76 1008 10 16 0.02 0.51
3:54 am 03:54 Mostly Cloudy 44 6.7 42 5.6 93 93 N N/A 29.72 1006 10 16 N/A
4:54 am 04:54 Mostly Cloudy 44 6.7 42 5.6 93 93 SW 5 7 29.72 1007 10 16 N/A
5:54 am 05:54 Mostly Clear 46 7.8 42 5.6 86 86 SW 7 11 29.73 1007 10 16 N/A
6:54 am 06:54 Partly Cloudy 47 8.3 39 3.9 74 74 W 14 22 29.74 1007 10 16 N/A
7:54 am 07:54 Partly Cloudy 47 8.3 36 2.2 66 66 WNW 21 33 29.77 1008 10 16 N/A
8:54 am 08:54 Partly Cloudy with Light Rain 46 7.8 30 -1.1 54 54 WNW 25 41 29.80 1009 10 16 0.00 0.00
9:54 am 09:54 Mostly Sunny 46 7.8 25 -3.9 44 44 W 29 46 29.82 1010 10 16 0.00 0.00
10:54 am 10:54 Partly Cloudy 46 7.8 23 -5 40 40 W 21 33 29.83 1010 10 16 N/A
11:54 am 11:54 Mostly Sunny 45 7.2 19 -7.2 35 35 W 23 37 29.82 1010 10 16 N/A
12:54 pm 12:54 Mostly Sunny 44 6.7 18 -7.8 35 35 WNW 26 43 29.81 1010 10 16 N/A
1:54 pm 13:54 Mostly Sunny 43 6.1 18 -7.8 37 37 W 18 30 29.83 1010 10 16 N/A
2:54 pm 14:54 Partly Cloudy 42 5.6 18 -7.8 38 38 WNW 24 39 29.85 1011 10 16 N/A
3:54 pm 15:54 Mostly Sunny 40 4.4 18 -7.8 41 41 WNW 21 33 29.88 1012 10 16 N/A
4:54 pm 16:54 Mostly Clear 38 3.3 19 -7.2 46 46 W 20 31 29.88 1012 10 16 N/A
5:54 pm 17:54 Mostly Clear 37 2.8 19 -7.2 48 48 W 16 26 29.89 1012 10 16 N/A
6:54 pm 18:54 Mostly Clear 36 2.2 19 -7.2 50 50 W 16 26 29.91 1013 10 16 N/A
7:54 pm 19:54 Mostly Cloudy 37 2.8 19 -7.2 48 48 W 21 33 29.90 1013 10 16 N/A
8:54 pm 20:54 Mostly Cloudy 37 2.8 20 -6.7 50 50 WNW 13 20 29.90 1013 10 16 N/A
9:54 pm 21:54 Mostly Cloudy 37 2.8 20 -6.7 50 50 W 21 33 29.89 1012 10 16 N/A

Powered by AerisWeather